Regional Weather Roundup
Issued by NWS

Home | Current Version | Previous Version | Text Only | Print | Product List | Glossary On
Versions: 1 2 3 4 5 6 7 8 9 10 11 12 13 14 15 16 17 18 19 20 21 22 23 24 25 26 27 28 29 30 31 32 33 34 35 36 37 38 39 40 41 42 43 44 45 46 47 48 49 50
000
ASUS45 KTFX 100610
RWRMT
Montana Regional Weather Roundup
National Weather Service Great Falls MT
1200 AM MDT FRI JUL 10 2020

NOTE: "FAIR" indicates few or no clouds below 12,000 feet with no
significant weather and/or obstructions to visibility.

MTZ001>007-043-100700-
West of the divide

CITY           SKY/WX    TMP DP  RH WIND       PRES   REMARKS
Kalispell      MOCLDY    60  53  77 CALM      29.95R
Missoula       MOCLDY    64  46  52 NW7       29.97R
Butte          CLEAR     54  43  66 S3        30.07S
Anaconda         N/A     54  41  62 SW5       30.02F
Deer Lodge       N/A     54  43  66 W6        30.04S
Hamilton       MOCLDY    55  50  82 SE6       29.96R
Mullan Pass    CLOUDY    54  38  54 VRB3      30.11S
Plains           N/A     70  46  42 CALM      30.00R
Ronan            N/A     61  48  63 N3        29.98R
$$

MTZ008-052>055-100700-
Southwest Montana

CITY           SKY/WX    TMP DP  RH WIND       PRES   REMARKS
Bozeman        CLEAR     59  47  64 CALM      30.00R
Dillon         CLEAR     57  42  57 SW10      30.02R
Ennis          CLEAR     50  41  71 N6        30.08S
Twin Bridges   CLEAR     64  37  36 CALM      30.01S
W Yellowstone  CLEAR     48  43  81 VRB5      30.14R
$$

MTZ009-010-012-014-046-048-049-054-100700-
East Slopes and Central Montana

CITY           SKY/WX    TMP DP  RH WIND       PRES   REMARKS
Cut Bank       PTCLDY    57  41  55 S6        29.95F
Great Falls    CLEAR     63  49  60 SE6       29.94S
Helena         CLEAR     62  43  49 W7        29.96
Malmstrom AFB  CLEAR     62  51  66 S7        29.94S
Augusta        FAIR      57  41  55 N10       29.98S
Bowmans Corner FAIR      59  40  48 N8        29.96S
Choteau          N/A     61  41  48 NW7       29.97R
Fairfield      FAIR      58  43  56 CALM      29.95R
Power          FAIR      59  46  62 NE8       29.94S
Raynesford     FAIR      60  50  70 E9        29.98S
Ulm            FAIR      58  50  75 SE6       29.95R
White Sulphur    N/A     55  45  67 CALM      30.05R
$$

MTZ011-013-016-021-045-047-050-051-100700-
North Central Montana

CITY           SKY/WX    TMP DP  RH WIND       PRES   REMARKS
Havre          CLEAR     63  51  65 E12       29.91S
Lewistown      PTCLDY    63  49  60 E12       30.00R
Chinook          N/A     63  54  72 E5        29.94S
Denton         FAIR      62  51  67 SW7       29.93R
Fort Benton      N/A     70  48  46 CALM      29.91S
Geyser         FAIR      57  50  78 SW8       29.98S
Grass Range    MOCLDY    62  51  68 SE7       29.98S
Judith Gap     FAIR      60  49  66 E15       30.03R
N Bar Ranch    FAIR      57  50  77 CALM      30.06F
Roy            FAIR      66  51  58 S17       29.98R
Stanford       FAIR      56  50  81 CALM      30.01R
$$

MTZ017>020-022>027-061-062-100700-
Northeast Montana

CITY           SKY/WX    TMP DP  RH WIND       PRES   REMARKS
Glasgow        CLEAR     60  53  77 E12       29.96R
Circle           N/A     55  48  76 CALM      29.97
Culbertson       N/A     54  52  94 NE5       29.98S
Glendive       CLEAR     61  55  81 E9        30.02R
Jordan           N/A     61  49  64 E3        29.97S
Malta          CLEAR     57  52  82 NE5       29.93S
Plentywood     CLEAR     54  50  87 E3        30.00S
Poplar           N/A     59  54  82 E5        29.98S
Scobey           N/A     54  45  71 CALM      29.99S
Sidney         CLEAR     56  52  86 NW3       30.01R
Wolf Point     CLEAR     57  53  86 E5        29.99R
$$

MTZ028>42-056>058-100700-
Southcentral and southeast Montana

CITY           SKY/WX    TMP DP  RH WIND       PRES   REMARKS
Baker          CLEAR     56  50  80 E7        30.03R
Big Timber     PTCLDY    59  48  67 CALM      30.05S
Billings       TSTM      62  53  72 NW21      30.08R
Hardin         CLEAR     68  50  52 CALM      29.93
Harlowton      FAIR      62  44  50 SE7       30.03R
Laurel           N/A     63  55  77 NE30G37   29.94F HAZE
Livingston     MOCLDY    58  46  64 E10       30.03R
Miles City     PTCLDY    66  47  50 E9        29.97R
$$

Regional Reports...Dakotas/MN

CITY           SKY/WX    TMP DP  RH WIND       PRES   REMARKS
Williston      CLEAR     58  52  80 S6        30.01S
Minot          CLEAR     60  55  83 SW7       29.97R
Dickinson      CLEAR     59  52  77 NE8       30.02R
Beach          FAIR      54  52  94 CALM      30.04R
Crosby         FAIR      54  54 100 S7        29.99S
Hettinger      PTCLDY    58  52  80 E7        30.04R
Tioga          FAIR      50  50 100 CALM      30.02S
Watford City   FAIR      57  55  94 S3        30.00S
Bismarck       CLEAR     62  57  83 NE3       30.00R
Grand Forks    CLEAR     65  59  81 W10       29.88S
Fargo          CLEAR     63  58  83 W7        29.91S
Buffalo SD       N/A     63  51  65 E10       30.01R
Rapid City     CLOUDY    68  58  70 W10         N/A
Intl Falls     CLEAR     58  55  90 SW3       29.84R
Duluth         PTCLDY    66  58  75 NW9       29.87R
Minneapolis    MOCLDY    72  63  73 NW6       29.89R
$$

Regional Reports...WY/ID/WA

CITY           SKY/WX    TMP DP  RH WIND       PRES   REMARKS
Buffalo WY     MOCLDY    70  39  32 SW6       30.06R
Cody           CLEAR     65  47  52 N3        30.07R
Gillette       PTCLDY    63  54  72 S16       30.04R
Powell         FAIR      63  41  45 N24G31    30.04R
Sheridan       PTCLDY    65  47  52 CALM      29.99R
Yellowstone La   N/A     44  33  65 NW3       30.27R
Boise          PTCLDY    71  41  33 SW6       29.86R
Couer d`Alene  MOCLDY    61  52  72 VRB3      29.97R
Idaho Falls    CLEAR     55  50  83 N3        30.01S
Salmon         CLEAR     57  46  66 CALM      29.95S
Spokane        MOCLDY    67  45  45 S7        29.96R
Seattle        PTCLDY    59  52  77 N6        30.07R
$$

Regional Reports...Alberta

CITY           SKY/WX    TMP DP  RH WIND       PRES   REMARKS
Calgary        PTCLDY    57  46  67 CALM      29.90R
Cardston         N/A     57  45  62 SW9         N/A
Crowsnest Pass   N/A     57  43  58 W3          N/A
Del Bonita       N/A     52  46  82 SW8         N/A
Edmonton       HVY RAIN  54  54 100 N5        29.84
Fort McMurray  CLOUDY    63  54  72 S7        29.81R
High Level     CLEAR     57  55  94 CALM      29.73F
Lethbridge     PTCLDY    55  52  88 SW8       29.90R
Lloydminster   CLEAR     59  54  82 S9        29.87S
Medicine Hat   CLEAR     61  55  82 VRB2      29.87S
Milk River       N/A     55  48  76 E2          N/A
Onefour          N/A     57  50  77 E7          N/A
Peace River    LGT RAIN  57  55  94 S5        29.81S
Pincher Creek  CLEAR     54  41  62 W6        29.95R
Raymond          N/A     59  48  67 SW6         N/A
Waterton Gate    N/A     46  43  87 N1          N/A
Fort Smith NWT CLOUDY    64  46  52 SE6       29.80S
$$

Regional Reports...Saskatchewan

CITY           SKY/WX    TMP DP  RH WIND       PRES   REMARKS
Assiniboia       N/A     57  50  77 S6          N/A
Coronach         N/A     50  48  93 CALM        N/A
Cypress Hills    N/A     55  46  71 SE6         N/A
Estevan        CLEAR     55  54  94 W5        29.98R
La Ronge         N/A     54  50  87 CALM        N/A
Moose Jaw        N/A     54  50  87 SW7         N/A
Regina         CLEAR     54  52  94 W8        29.97R
Rockglen         N/A     54  48  82 S6          N/A
Saskatoon      PTCLDY    57  52  82 SE3       29.92S
Swift Current  CLEAR     52  48  87 SE8       29.95F
Uranium City     N/A     57  46  67 E3          N/A
Val Marie        N/A     52  48  87 E7          N/A
$$




USA.gov is the U.S. government's official web portal to all federal, state and local government web resources and services.